Location: Acheville
(50.3840°N, 2.8827°E)
Time: 12:53:46
(UTC+00:00)

HJ-1C - Pass Details

Date: 24 October 2021
Orbit: 422 x 433 km, 97.1° (Epoch: 06 December)

Event Time Altitude Azimuth Distance (km) Brightness Sun altitude
Exits shadow 17:59:32 23° 110° (ESE) 950 4.5 -13.5°
Maximum altitude 18:00:45 31° 69° (ENE) 778 4.1 -13.7°
Drops below altitude 10° 18:03:42 10° 6° (N) 1,537 6.0 -14.2°
Sets 18:05:51 0° 356° (N) 2,412 7.1 -14.5°
